[[{"header":{"parameterUnit":"m.s-1","parameterCategory":1,"la1":30.2991,"la2":30.254,"lo1":-89.0895,"lo2":-89.0444,"dy":0.0017,"dx":0.0017,"nx":28,"ny":28,"refTime":"2024-07-29T09:00:00:Z","depth":0,"parameterNumber":2,"parameterNumberName":"U-component_of_WINDS"},"data":[0,0,0,0,0,0,0,0,0,0,0,0,0,0,0,0,0,0,0,0,0,0,0,0,0,0,0,0,0,0,0,0,0,0,0,0,0,0,0,0,0,0,0,0,0,0,0,0,0,0,0,0,0,0,0,0,0,0,2.151,2.1511,0,2.1599,2.16,2.1601,2.16,2.1599,2.1598,2.1597,2.1693,2.1697,2.17,0,0,0,0,0,0,0,0,0,0,0,0,0,2.1346,2.1349,2.151,2.1511,2.1512,2.1599,2.16,2.1601,2.16,2.1599,2.1597,2.1596,2.1692,2.1696,2.1701,0,0,0,0,0,0,0,0,0,0,0,0,0,2.1424,2.135,2.151,2.1522,2.1524,2.1598,2.16,2.1601,2.1601,2.1599,2.1597,2.1595,2.169,2.1696,2.1701,2.1771,0,0,2.1718,2.172,0,0,0,0,0,0,0,0,2.142,2.143,2.1519,2.1521,2.1523,2.1586,2.1577,2.1658,2.1601,2.1572,2.1597,2.1594,2.1659,2.1667,2.1688,2.1775,2.1779,2.1718,2.1722,2.1724,2.1726,0,0,0,0,0,0,0,2.1414,2.1427,2.1545,2.152,2.1523,2.1525,2.1534,2.1593,2.1625,2.1574,2.1574,2.1584,2.166,2.1683,2.169,2.1781,2.1718,2.1723,2.1727,2.1729,2.1933,2.1935,0,0,0,0,0,0,2.1406,2.1422,2.1542,2.1548,2.1466,2.153,2.154,2.1568,2.1624,2.1631,2.1586,2.1584,2.1674,2.1684,2.1694,2.1781,2.1724,2.1729,2.1732,2.1931,2.1934,2.1936,0,0,0,0,0,0,2.1402,2.1416,2.1539,2.1485,2.1501,2.1534,2.1566,2.1571,2.1593,2.1633,2.1639,2.1603,2.1673,2.1686,2.1752,2.1784,2.1732,2.1737,2.1929,2.1932,2.1935,2.1955,0,0,0,0,0,0,2.1397,2.1415,2.144,2.1485,2.1503,2.1593,2.1568,2.1574,2.1602,2.1601,2.165,2.1657,2.1673,2.1744,2.1757,2.1791,2.1741,2.1926,2.193,2.1934,2.1951,2.1958,2.1964,0,0,0,0,0,2.1391,2.1443,2.1441,2.1456,2.1535,2.1595,2.1606,2.1622,2.1604,2.1631,2.1657,2.1655,2.1778,2.175,2.1766,2.1802,2.1924,2.1929,2.1934,2.1949,2.1957,2.1964,0,0,0,0,0,0,2.1402,2.1449,2.1448,2.1515,2.1551,2.1595,2.1629,2.163,2.1673,2.167,2.1689,2.1701,2.1767,2.1791,2.1759,2.1874,2.1849,2.1857,2.1856,2.1864,2.187,2.1864,2.1746,0,0,0,0,0,2.1411,2.1454,2.1494,2.1549,2.1567,2.1595,2.1622,2.1631,2.167,2.1686,2.1716,2.1756,2.1804,2.1835,2.1881,2.1955,2.1967,2.1987,2.1993,2.1998,2.2006,2.2049,2.2059,2.1952,2.1952,2.1952,0,0,2.1432,2.1464,2.149,2.1552,2.1581,2.1628,2.1608,2.1657,2.1693,2.1694,2.1758,2.1782,2.1828,2.1899,2.1931,2.192,2.2038,2.2004,2.2008,2.2013,2.2055,2.2065,2.2074,2.1955,2.1954,2.1954,0,0,2.1495,2.1522,2.1572,2.1601,2.1645,2.1664,2.1676,2.172,2.1736,2.18,2.1803,2.1846,2.1928,2.1961,2.1988,2.2066,2.2066,2.208,2.2114,2.2156,2.2164,2.2172,2.2202,2.2212,2.2087,2.2087,2.2087,0,2.1516,2.1584,2.1598,2.1648,2.1677,2.1678,2.1731,2.176,2.1817,2.1838,2.1825,2.1928,2.1959,2.2039,2.2058,2.2079,2.2096,2.2075,2.2162,2.217,2.2177,2.2206,2.2217,2.2089,2.2088,2.2088,2.2088,0,2.1609,2.1656,2.1692,2.1746,2.1779,2.183,2.1854,2.1886,2.1893,2.1914,2.1981,2.2018,2.2073,2.2092,2.21,2.2174,2.2166,2.2157,2.2133,2.2189,2.2216,2.2227,2.2091,2.209,2.209,2.2089,0,0,2.168,2.1742,2.1755,2.1781,2.183,2.1868,2.1921,2.1973,2.2001,2.2041,2.2087,2.2157,2.2149,2.2181,2.2192,2.2229,2.2291,2.2216,2.2217,2.223,2.2378,2.2386,2.2398,2.2291,2.2293,2.2295,2.2375,0,2.1749,2.184,2.1855,2.1936,2.1982,2.1985,2.2031,2.2068,2.2089,2.2133,2.2157,2.2207,2.2192,2.2211,2.2247,2.2275,2.2321,2.2269,2.2337,2.2339,2.2326,2.2412,2.242,2.2493,2.2385,2.2387,2.2388,0,2.1842,2.1883,2.1968,2.2014,2.2033,2.2074,2.2125,2.2165,2.2208,2.2221,2.2257,2.2264,2.2322,2.2295,2.2376,2.2341,2.2369,2.2387,2.2391,2.2399,2.2368,2.2424,2.2517,2.2529,2.2405,2.2404,2.2403,0,2.1888,2.1965,2.2026,2.2048,2.2102,2.2131,2.2155,2.2196,2.2227,2.2272,2.2293,2.2344,2.2373,2.2413,2.2436,2.2413,2.2516,2.249,2.2531,2.253,2.2553,2.2552,2.2654,2.2569,2.2569,2.2568,2.2568,0,2.1964,2.2017,2.2048,2.2086,2.2146,2.2164,2.2224,2.2247,2.2284,2.2329,2.2335,2.2378,2.2404,2.2451,2.2469,2.2534,2.2547,2.2561,2.2566,2.2561,2.256,2.2581,2.2577,2.2571,2.2571,2.257,2.257,0,2.2026,2.2048,2.2116,2.2161,2.2174,2.2217,2.2257,2.2295,2.2316,2.2373,2.2388,2.2422,2.2478,2.2504,2.2573,2.2585,2.2661,2.2661,2.2646,2.2648,2.2687,2.2684,2.2808,2.2827,2.2728,2.2729,2.2729,0,2.2074,2.2114,2.2164,2.2194,2.2218,2.2266,2.2297,2.2318,2.2351,2.2404,2.2437,2.2492,2.2538,2.2627,2.266,2.2713,2.2716,2.2756,2.2724,2.272,2.2719,2.2717,2.2723,2.2762,2.2763,2.2764,2.2764,0,2.2157,2.2167,2.2211,2.2261,2.2298,2.2338,2.2378,2.2402,2.2429,2.2467,2.2523,2.2558,2.2629,2.2685,2.2741,2.2769,2.2773,2.2774,2.2787,2.2784,2.2774,2.2782,2.2663,2.2771,2.2771,2.277,2.277,2.277,2.2215,2.2252,2.2293,2.2343,2.2375,2.2412,2.2451,2.2477,2.2524,2.2582,2.2592,2.2652,2.2697,2.2772,2.2802,2.2851,2.2842,2.286,2.2865,2.2869,2.2872,2.2765,2.2861,2.2861,2.2861,2.2861,2.2861,0,2.2301,2.2328,2.2374,2.2428,2.2469,2.2466,2.2511,2.2545,2.2598,2.2638,2.2683,2.2749,2.2804,2.2841,2.2897,2.293,2.2933,2.2944,2.2943,2.295,2.2876,2.286,2.2941,2.2941,2.294,2.294,2.294,2.294,2.235,2.2413,2.2428,2.2508,2.2535,2.2593,2.2619,2.2655,2.2687,2.276,2.2805,2.2828,2.2868,2.2928,2.2979,2.2989,2.301,2.3022,2.3032,2.2963,2.2954,2.2946,2.2932,2.3026,2.3026,2.3101,2.3102,2.3102]},{"header":{"parameterUnit":"m.s-1","parameterCategory":1,"la1":30.2991,"la2":30.254,"lo1":-89.0895,"lo2":-89.0444,"dy":0.0017,"dx":0.0017,"nx":28,"ny":28,"refTime":"2024-07-29T09:00:00:Z","depth":0,"parameterNumber":3,"parameterNumberName":"V-component_of_WINDS"},"data":[0,0,0,0,0,0,0,0,0,0,0,0,0,0,0,0,0,0,0,0,0,0,0,0,0,0,0,0,0,0,0,0,0,0,0,0,0,0,0,0,0,0,0,0,0,0,0,0,0,0,0,0,0,0,0,0,0,0,0.6867,0.6867,0,0.6873,0.6873,0.6873,0.6867,0.6867,0.6867,0.6867,0.6871,0.6871,0.6871,0,0,0,0,0,0,0,0,0,0,0,0,0,0.6847,0.6847,0.6867,0.6867,0.6867,0.6873,0.6873,0.6873,0.6867,0.6867,0.6867,0.6866,0.687,0.6871,0.6871,0,0,0,0,0,0,0,0,0,0,0,0,0,0.6854,0.6847,0.6867,0.6865,0.6865,0.6873,0.6873,0.6873,0.6867,0.6867,0.6867,0.6866,0.687,0.6871,0.6871,0.6881,0,0,0.6873,0.6873,0,0,0,0,0,0,0,0,0.6854,0.6855,0.6865,0.6865,0.6865,0.6869,0.6867,0.6876,0.6867,0.6866,0.6866,0.6866,0.687,0.6871,0.6873,0.6881,0.6882,0.6873,0.6873,0.6873,0.6873,0,0,0,0,0,0,0,0.6853,0.6855,0.687,0.6866,0.6865,0.6862,0.6863,0.6869,0.687,0.6866,0.6866,0.6867,0.687,0.6872,0.6873,0.6882,0.6873,0.6873,0.6874,0.6874,0.6895,0.6895,0,0,0,0,0,0,0.6854,0.6854,0.6869,0.687,0.6859,0.6863,0.6864,0.6868,0.687,0.687,0.6867,0.6867,0.6871,0.6872,0.6873,0.6882,0.6873,0.6874,0.6874,0.6894,0.6895,0.6895,0,0,0,0,0,0,0.6853,0.6855,0.6869,0.6862,0.6864,0.6864,0.6869,0.6868,0.687,0.6871,0.687,0.6869,0.6871,0.6872,0.6878,0.6882,0.6874,0.6874,0.6894,0.6894,0.6895,0.6902,0,0,0,0,0,0,0.6853,0.6855,0.686,0.6862,0.6864,0.6876,0.6869,0.6869,0.6872,0.6871,0.6873,0.6872,0.6871,0.6878,0.6879,0.6883,0.6875,0.6894,0.6894,0.6895,0.6902,0.6903,0.6904,0,0,0,0,0,0.6852,0.6862,0.686,0.6862,0.687,0.6877,0.6877,0.6876,0.6872,0.6876,0.6875,0.6872,0.6881,0.6878,0.688,0.6884,0.6894,0.6894,0.6895,0.6901,0.6903,0.6904,0,0,0,0,0,0,0.6861,0.6863,0.6861,0.6872,0.6874,0.6876,0.6881,0.6878,0.6881,0.688,0.6878,0.6878,0.6884,0.6885,0.6881,0.6891,0.6887,0.6887,0.6891,0.6893,0.6894,0.6893,0.6875,0,0,0,0,0,0.6864,0.687,0.6871,0.6881,0.6882,0.6881,0.6884,0.6882,0.6884,0.6885,0.6885,0.6886,0.6888,0.6891,0.6893,0.6901,0.69,0.6904,0.6906,0.6906,0.6907,0.6908,0.691,0.6897,0.6897,0.6897,0,0,0.6871,0.6873,0.6877,0.6882,0.6884,0.6888,0.6882,0.6888,0.689,0.6885,0.6891,0.6891,0.6891,0.6898,0.6901,0.6898,0.691,0.6907,0.6908,0.6908,0.6909,0.691,0.6911,0.6897,0.6897,0.6897,0,0,0.6886,0.6889,0.6896,0.6897,0.6899,0.6898,0.6899,0.69,0.69,0.6905,0.6901,0.6903,0.6909,0.6908,0.6909,0.6919,0.6916,0.692,0.6926,0.6927,0.6928,0.6929,0.6931,0.6932,0.6921,0.6921,0.6921,0,0.6895,0.6902,0.69,0.6905,0.6906,0.6902,0.6907,0.6908,0.6911,0.6911,0.6908,0.6913,0.6913,0.6918,0.692,0.6922,0.6922,0.692,0.6928,0.6929,0.693,0.6932,0.6933,0.6921,0.6921,0.6921,0.6921,0,0.6911,0.6916,0.6921,0.6923,0.6925,0.6931,0.6928,0.6929,0.6927,0.6925,0.6929,0.6929,0.693,0.6931,0.6929,0.6934,0.6932,0.6929,0.6924,0.6932,0.6933,0.6934,0.6922,0.6922,0.6922,0.6922,0,0,0.6934,0.6932,0.6934,0.6933,0.6933,0.6936,0.694,0.6941,0.6942,0.6943,0.6945,0.6948,0.6943,0.6944,0.6941,0.6943,0.6948,0.6939,0.6938,0.6939,0.6951,0.6953,0.6954,0.6945,0.6945,0.6945,0.6951,0,0.6947,0.6955,0.6951,0.6958,0.6961,0.6955,0.6958,0.6957,0.6955,0.6955,0.6952,0.6954,0.695,0.6949,0.695,0.6947,0.695,0.6947,0.6945,0.6945,0.6945,0.6955,0.6958,0.6964,0.6951,0.6952,0.6952,0,0.6964,0.6965,0.6972,0.6969,0.697,0.6973,0.6972,0.6973,0.6971,0.6969,0.6968,0.6964,0.6965,0.696,0.696,0.6958,0.6957,0.6954,0.6954,0.6954,0.6949,0.6954,0.6966,0.6966,0.6953,0.6953,0.6953,0,0.6978,0.698,0.6984,0.6984,0.6981,0.6983,0.6981,0.6979,0.6978,0.6977,0.6976,0.6975,0.6974,0.6972,0.6967,0.6964,0.6967,0.6962,0.6964,0.6964,0.6965,0.6965,0.6975,0.6965,0.6965,0.6965,0.6965,0,0.6992,0.6997,0.699,0.6993,0.6996,0.6991,0.6994,0.6992,0.6989,0.6989,0.6983,0.6984,0.6977,0.6976,0.6971,0.6971,0.6971,0.6968,0.6966,0.6968,0.6968,0.6967,0.6966,0.6965,0.6965,0.6965,0.6965,0,0.7009,0.7005,0.7008,0.7004,0.7002,0.7005,0.7001,0.7002,0.6998,0.6998,0.6998,0.6992,0.699,0.6984,0.6981,0.6977,0.6978,0.6976,0.6979,0.6978,0.6979,0.6979,0.6989,0.6989,0.698,0.698,0.698,0,0.7018,0.7021,0.7016,0.7016,0.7015,0.7015,0.7014,0.7008,0.7007,0.7003,0.7004,0.7001,0.6999,0.6995,0.699,0.6986,0.6984,0.6987,0.6983,0.6984,0.6982,0.6982,0.6981,0.6988,0.6988,0.6989,0.6989,0,0.7035,0.7032,0.7031,0.7029,0.7028,0.7027,0.7024,0.7024,0.7017,0.7016,0.7014,0.7012,0.7007,0.7004,0.6999,0.6996,0.699,0.699,0.699,0.6991,0.6992,0.699,0.698,0.699,0.699,0.699,0.699,0.6989,0.7047,0.7048,0.7044,0.7043,0.704,0.7037,0.7037,0.7033,0.7031,0.7027,0.7023,0.7021,0.7015,0.7008,0.7005,0.7001,0.6999,0.6999,0.6999,0.6999,0.6999,0.6993,0.7001,0.7001,0.7,0.7,0.7,0,0.7062,0.7058,0.7057,0.7053,0.7052,0.7047,0.7043,0.7042,0.704,0.7035,0.7033,0.7028,0.7024,0.7017,0.7012,0.7011,0.7008,0.701,0.7009,0.7008,0.7003,0.7003,0.7012,0.7012,0.7012,0.7012,0.7012,0.7012,0.7069,0.707,0.7066,0.7065,0.7061,0.7059,0.7057,0.7053,0.705,0.7045,0.7042,0.7037,0.7031,0.7025,0.702,0.7018,0.7016,0.7018,0.7015,0.701,0.7009,0.7008,0.7008,0.7018,0.7018,0.7021,0.7021,0.7021]}]]